• In Belarus
  • List of Countries
  • For 7 days
  • Water Temperature
  • Satellite Maps
  • Weather Map
  • Weather Widgets
  • user-avatar
    Login

    Hourly Weather Myitkyina

    Today, 18 March, Monday

    Time Temperature Precipitation Wind Pressure Humidity
    00:00 +21°C° 0 mm 1 mps 743 mmHg 49%
    01:00 +21°C° 0 mm 1 mps 743 mmHg 50%
    02:00 +20°C° 0 mm 1 mps 743 mmHg 52%
    03:00 +20°C° 0 mm 1 mps 743 mmHg 53%
    04:00 +20°C° 0 mm 1 mps 743 mmHg 54%
    05:00 +19°C° 0 mm 1 mps 743 mmHg 56%
    06:00 +20°C° 0 mm 1 mps 743 mmHg 57%
    07:00 +24°C° 0 mm 1 mps 743 mmHg 48%
    08:00 +27°C° 0 mm 1 mps 743 mmHg 39%
    09:00 +30°C° 0 mm 1 mps 743 mmHg 30%
    10:00 +33°C° 0 mm 1 mps 743 mmHg 27%
    11:00 +35°C° 0 mm 1 mps 742 mmHg 25%
    12:00 +35°C° 0 mm 1 mps 742 mmHg 22%
    13:00 +35°C° 0 mm 1 mps 742 mmHg 22%
    14:00 +35°C° 0 mm 1 mps 741 mmHg 22%
    15:00 +35°C° 0 mm 1 mps 740 mmHg 22%
    16:00 +32°C° 0 mm 1 mps 740 mmHg 28%
    17:00 +29°C° 0 mm 1 mps 740 mmHg 34%
    18:00 +26°C° 0 mm 1 mps 739 mmHg 40%
    19:00 +25°C° 0.2 mm 1 mps 740 mmHg 46%
    20:00 +23°C° 0.2 mm 1 mps 740 mmHg 53%
    21:00 +22°C° 0.2 mm 1 mps 741 mmHg 59%
    22:00 +21°C° 0.7 mm 1 mps 741 mmHg 68%
    23:00 +20°C° 0.7 mm 1 mps 741 mmHg 77%

    Tomorrow, 19 March, Tuesday

    Time Temperature Precipitation Wind Pressure Humidity
    00:00 +19°C° 0.7 mm 1 mps 741 mmHg 85%
    01:00 +19°C° 0.3 mm 1 mps 740 mmHg 87%
    02:00 +19°C° 0.3 mm 1 mps 740 mmHg 88%
    03:00 +19°C° 0.3 mm 1 mps 740 mmHg 89%
    04:00 +18°C° 0 mm 1 mps 740 mmHg 89%
    05:00 +18°C° 0 mm 1 mps 740 mmHg 89%
    06:00 +18°C° 0 mm 1 mps 741 mmHg 90%
    07:00 +20°C° 0 mm 1 mps 741 mmHg 79%
    08:00 +21°C° 0 mm 0 mps 741 mmHg 68%
    09:00 +23°C° 0 mm 0 mps 742 mmHg 57%
    10:00 +27°C° 0 mm 1 mps 741 mmHg 50%
    11:00 +30°C° 0 mm 1 mps 741 mmHg 43%
    12:00 +32°C° 0 mm 1 mps 741 mmHg 36%
    13:00 +32°C° 0 mm 1 mps 740 mmHg 35%
    14:00 +30°C° 0 mm 0 mps 739 mmHg 35%
    15:00 +29°C° 0 mm 0 mps 739 mmHg 35%
    16:00 +29°C° 0 mm 1 mps 739 mmHg 40%
    17:00 +27°C° 0 mm 1 mps 739 mmHg 46%
    18:00 +25°C° 0 mm 1 mps 739 mmHg 52%
    19:00 +24°C° 0 mm 1 mps 740 mmHg 55%
    20:00 +22°C° 0 mm 1 mps 740 mmHg 58%
    21:00 +21°C° 0 mm 1 mps 741 mmHg 61%
    22:00 +21°C° 0 mm 1 mps 741 mmHg 63%
    23:00 +20°C° 0 mm 1 mps 741 mmHg 64%

    Day after tomorrow, 20 March, Wednesday

    Time Temperature Precipitation Wind Pressure Humidity
    00:00 +20°C° 0 mm 1 mps 741 mmHg 65%
    01:00 +19°C° 0 mm 1 mps 740 mmHg 66%
    02:00 +19°C° 0 mm 1 mps 740 mmHg 67%
    03:00 +19°C° 0 mm 1 mps 740 mmHg 68%
    04:00 +19°C° 0 mm 1 mps 740 mmHg 68%
    05:00 +19°C° 0 mm 1 mps 740 mmHg 68%
    06:00 +19°C° 0 mm 1 mps 740 mmHg 68%
    07:00 +22°C° 0 mm 1 mps 741 mmHg 57%
    08:00 +25°C° 0 mm 1 mps 741 mmHg 47%
    09:00 +28°C° 0 mm 1 mps 742 mmHg 36%
    10:00 +30°C° 0 mm 1 mps 741 mmHg 33%
    11:00 +32°C° 0 mm 1 mps 741 mmHg 29%
    12:00 +33°C° 0 mm 0 mps 740 mmHg 26%
    13:00 +34°C° 0 mm 1 mps 740 mmHg 25%
    14:00 +34°C° 0 mm 1 mps 739 mmHg 25%
    15:00 +33°C° 0 mm 1 mps 738 mmHg 25%
    16:00 +31°C° 0 mm 1 mps 738 mmHg 31%
    17:00 +28°C° 0 mm 1 mps 739 mmHg 37%
    18:00 +25°C° 0 mm 1 mps 739 mmHg 43%
    19:00 +24°C° 0 mm 1 mps 740 mmHg 47%
    20:00 +23°C° 0 mm 1 mps 740 mmHg 50%
    21:00 +22°C° 0 mm 1 mps 741 mmHg 54%
    22:00 +21°C° 0 mm 1 mps 741 mmHg 55%
    23:00 +21°C° 0 mm 1 mps 741 mmHg 57%

    21 March, Thursday

    Time Temperature Precipitation Wind Pressure Humidity
    00:00 +20°C° 0 mm 1 mps 741 mmHg 58%
    01:00 +19°C° 0 mm 1 mps 741 mmHg 60%
    02:00 +19°C° 0 mm 1 mps 740 mmHg 62%
    03:00 +18°C° 0 mm 1 mps 740 mmHg 64%
    04:00 +18°C° 0 mm 1 mps 740 mmHg 65%
    05:00 +18°C° 0 mm 1 mps 741 mmHg 65%
    06:00 +18°C° 0 mm 1 mps 741 mmHg 66%
    07:00 +21°C° 0 mm 1 mps 742 mmHg 56%
    08:00 +25°C° 0 mm 1 mps 742 mmHg 45%
    09:00 +28°C° 0 mm 1 mps 743 mmHg 34%
    10:00 +31°C° 0 mm 1 mps 742 mmHg 31%
    11:00 +33°C° 0 mm 1 mps 742 mmHg 27%
    12:00 +35°C° 0 mm 1 mps 741 mmHg 24%
    13:00 +34°C° 0 mm 1 mps 740 mmHg 24%
    14:00 +34°C° 0 mm 1 mps 739 mmHg 23%
    15:00 +34°C° 0 mm 1 mps 738 mmHg 23%
    16:00 +31°C° 0 mm 1 mps 739 mmHg 28%
    17:00 +28°C° 0 mm 1 mps 739 mmHg 33%
    18:00 +26°C° 0 mm 1 mps 739 mmHg 38%
    19:00 +25°C° 0 mm 1 mps 740 mmHg 40%
    20:00 +24°C° 0 mm 1 mps 741 mmHg 41%
    21:00 +23°C° 0 mm 1 mps 742 mmHg 42%
    22:00 +22°C° 0 mm 1 mps 742 mmHg 44%
    23:00 +22°C° 0 mm 1 mps 741 mmHg 45%

    22 March, Friday

    Time Temperature Precipitation Wind Pressure Humidity
    00:00 +21°C° 0 mm 1 mps 741 mmHg 46%
    01:00 +21°C° 0 mm 1 mps 741 mmHg 47%
    02:00 +21°C° 0 mm 1 mps 741 mmHg 48%
    03:00 +20°C° 0 mm 1 mps 740 mmHg 48%
    04:00 +20°C° 0 mm 1 mps 741 mmHg 50%
    05:00 +20°C° 0 mm 1 mps 741 mmHg 52%
    06:00 +19°C° 0 mm 1 mps 741 mmHg 54%
    07:00 +23°C° 0 mm 1 mps 742 mmHg 45%
    08:00 +26°C° 0 mm 1 mps 742 mmHg 37%
    09:00 +30°C° 0 mm 1 mps 743 mmHg 29%
    10:00 +32°C° 0 mm 1 mps 742 mmHg 26%
    11:00 +34°C° 0 mm 1 mps 742 mmHg 23%
    12:00 +36°C° 0 mm 1 mps 741 mmHg 20%
    13:00 +36°C° 0 mm 1 mps 741 mmHg 20%
    14:00 +35°C° 0 mm 1 mps 740 mmHg 20%
    15:00 +35°C° 0 mm 1 mps 739 mmHg 20%
    16:00 +32°C° 0 mm 1 mps 739 mmHg 25%
    17:00 +30°C° 0 mm 1 mps 739 mmHg 30%
    18:00 +27°C° 0 mm 1 mps 740 mmHg 36%
    19:00 +25°C° 0 mm 1 mps 740 mmHg 38%
    20:00 +24°C° 0 mm 1 mps 741 mmHg 41%
    21:00 +23°C° 0 mm 1 mps 741 mmHg 43%
    22:00 +22°C° 0 mm 1 mps 741 mmHg 44%
    23:00 +22°C° 0 mm 1 mps 741 mmHg 44%

    23 March, Saturday

    Time Temperature Precipitation Wind Pressure Humidity
    00:00 +22°C° 0 mm 1 mps 741 mmHg 44%
    01:00 +22°C° 0 mm 1 mps 741 mmHg 47%
    02:00 +21°C° 0 mm 1 mps 741 mmHg 51%
    03:00 +20°C° 0 mm 1 mps 740 mmHg 55%
    04:00 +20°C° 0 mm 1 mps 740 mmHg 56%
    05:00 +20°C° 0 mm 1 mps 741 mmHg 57%
    06:00 +19°C° 0 mm 1 mps 741 mmHg 59%
    07:00 +23°C° 0 mm 1 mps 741 mmHg 49%
    08:00 +27°C° 0 mm 1 mps 742 mmHg 40%
    09:00 +31°C° 0 mm 1 mps 742 mmHg 31%
    10:00 +33°C° 0 mm 1 mps 741 mmHg 28%
    11:00 +35°C° 0 mm 1 mps 741 mmHg 25%
    12:00 +36°C° 0 mm 1 mps 740 mmHg 22%
    13:00 +36°C° 0 mm 1 mps 739 mmHg 21%
    14:00 +36°C° 0 mm 1 mps 739 mmHg 21%
    15:00 +36°C° 0 mm 1 mps 738 mmHg 21%
    16:00 +34°C° 0 mm 1 mps 738 mmHg 27%
    17:00 +31°C° 0 mm 1 mps 738 mmHg 32%
    18:00 +28°C° 0 mm 1 mps 739 mmHg 38%
    19:00 +27°C° 0 mm 1 mps 739 mmHg 41%
    20:00 +25°C° 0 mm 1 mps 740 mmHg 44%
    21:00 +24°C° 0 mm 2 mps 740 mmHg 47%
    22:00 +24°C° 0 mm 2 mps 740 mmHg 49%
    23:00 +23°C° 0 mm 2 mps 740 mmHg 51%
    Show more